When you browse on this site, cookies collect data to enhance your experience and personalize the content and advertising you see.
Visit our Privacy Policy to learn more. By continuing to use the site, you agree to this use of cookies and data.

Stündliche Wetter Albany

Heute, 9 Juli, Donnerstag

Zeit Temperatur Niederschläge Wind Luftdruck Luftfeuchtigkeit
00:00 +11°C° 0.1 mm 4 m/S 764 mmHg 78%
01:00 +11°C° 0.1 mm 4 m/S 764 mmHg 80%
02:00 +11°C° 0 mm 4 m/S 764 mmHg 82%
03:00 +10°C° 0.1 mm 4 m/S 764 mmHg 82%
04:00 +10°C° 0.1 mm 4 m/S 764 mmHg 83%
05:00 +10°C° 0.1 mm 4 m/S 763 mmHg 83%
06:00 +10°C° 0.2 mm 4 m/S 764 mmHg 85%
07:00 +9°C° 0.2 mm 5 m/S 764 mmHg 86%
08:00 +10°C° 0 mm 5 m/S 764 mmHg 87%
09:00 +11°C° 0.1 mm 6 m/S 764 mmHg 81%
10:00 +11°C° 0.1 mm 6 m/S 764 mmHg 76%
11:00 +12°C° 0.1 mm 7 m/S 764 mmHg 71%
12:00 +13°C° 0 mm 6 m/S 764 mmHg 69%
13:00 +13°C° 0 mm 6 m/S 764 mmHg 68%
14:00 +12°C° 0 mm 5 m/S 765 mmHg 67%
15:00 +12°C° 0 mm 5 m/S 765 mmHg 69%
16:00 +10°C° 0 mm 5 m/S 765 mmHg 70%
17:00 +10°C° 0 mm 4 m/S 765 mmHg 72%
18:00 +10°C° 0 mm 4 m/S 766 mmHg 73%
19:00 +10°C° 0 mm 4 m/S 766 mmHg 73%
20:00 +8°C° 0 mm 4 m/S 767 mmHg 73%
21:00 +8°C° 0 mm 4 m/S 767 mmHg 74%
22:00 +9°C° 0 mm 3 m/S 767 mmHg 74%
23:00 +9°C° 0 mm 3 m/S 767 mmHg 74%

Morgen, 10 Juli, Freitag

Zeit Temperatur Niederschläge Wind Luftdruck Luftfeuchtigkeit
00:00 +10°C° 0 mm 3 m/S 767 mmHg 74%
01:00 +10°C° 0 mm 3 m/S 767 mmHg 74%
02:00 +10°C° 0 mm 3 m/S 767 mmHg 74%
03:00 +10°C° 0 mm 3 m/S 767 mmHg 74%
04:00 +10°C° 0 mm 3 m/S 767 mmHg 74%
05:00 +10°C° 0 mm 3 m/S 768 mmHg 75%
06:00 +10°C° 0 mm 3 m/S 768 mmHg 74%
07:00 +10°C° 0 mm 3 m/S 768 mmHg 74%
08:00 +10°C° 0 mm 3 m/S 769 mmHg 73%
09:00 +10°C° 0 mm 3 m/S 769 mmHg 71%
10:00 +12°C° 0 mm 2 m/S 769 mmHg 68%
11:00 +12°C° 0 mm 2 m/S 770 mmHg 65%
12:00 +12°C° 0 mm 2 m/S 769 mmHg 64%
13:00 +12°C° 0 mm 2 m/S 769 mmHg 64%
14:00 +12°C° 0 mm 2 m/S 768 mmHg 63%
15:00 +12°C° 0 mm 2 m/S 768 mmHg 64%
16:00 +12°C° 0 mm 2 m/S 769 mmHg 65%
17:00 +10°C° 0 mm 2 m/S 769 mmHg 66%
18:00 +9°C° 0 mm 2 m/S 769 mmHg 71%
19:00 +8°C° 0 mm 2 m/S 769 mmHg 75%
20:00 +7°C° 0 mm 2 m/S 769 mmHg 80%
21:00 +8°C° 0 mm 1 m/S 769 mmHg 82%
22:00 +7°C° 0 mm 1 m/S 770 mmHg 83%
23:00 +7°C° 0 mm 1 m/S 770 mmHg 85%

übermorgen, 11 Juli, Samstag

Zeit Temperatur Niederschläge Wind Luftdruck Luftfeuchtigkeit
00:00 +7°C° 0 mm 1 m/S 770 mmHg 85%
01:00 +5°C° 0 mm 2 m/S 769 mmHg 86%
02:00 +5°C° 0 mm 2 m/S 769 mmHg 87%
03:00 +5°C° 0 mm 2 m/S 769 mmHg 88%
04:00 +5°C° 0 mm 2 m/S 769 mmHg 88%
05:00 +5°C° 0 mm 2 m/S 769 mmHg 89%
06:00 +5°C° 0 mm 2 m/S 769 mmHg 88%
07:00 +5°C° 0 mm 2 m/S 769 mmHg 87%
08:00 +5°C° 0 mm 2 m/S 769 mmHg 87%
09:00 +7°C° 0 mm 3 m/S 769 mmHg 79%
10:00 +10°C° 0 mm 3 m/S 769 mmHg 71%
11:00 +12°C° 0 mm 4 m/S 769 mmHg 62%
12:00 +13°C° 0 mm 4 m/S 768 mmHg 60%
13:00 +13°C° 0 mm 3 m/S 767 mmHg 58%
14:00 +14°C° 0 mm 3 m/S 767 mmHg 55%
15:00 +13°C° 0 mm 3 m/S 767 mmHg 59%
16:00 +12°C° 0 mm 3 m/S 767 mmHg 63%
17:00 +11°C° 0 mm 3 m/S 767 mmHg 67%
18:00 +10°C° 0 mm 3 m/S 766 mmHg 70%
19:00 +9°C° 0 mm 3 m/S 766 mmHg 73%
20:00 +7°C° 0 mm 4 m/S 766 mmHg 76%
21:00 +6°C° 0 mm 4 m/S 766 mmHg 78%
22:00 +7°C° 0 mm 3 m/S 766 mmHg 79%
23:00 +5°C° 0 mm 3 m/S 766 mmHg 81%

12 Juli, Sonntag

Zeit Temperatur Niederschläge Wind Luftdruck Luftfeuchtigkeit
00:00 +5°C° 0 mm 4 m/S 765 mmHg 80%
01:00 +5°C° 0 mm 4 m/S 765 mmHg 79%
02:00 +5°C° 0 mm 4 m/S 764 mmHg 79%
03:00 +5°C° 0 mm 4 m/S 764 mmHg 78%
04:00 +5°C° 0 mm 4 m/S 764 mmHg 77%
05:00 +5°C° 0 mm 4 m/S 763 mmHg 75%
06:00 +5°C° 0 mm 4 m/S 763 mmHg 73%
07:00 +5°C° 0 mm 4 m/S 763 mmHg 71%
08:00 +6°C° 0 mm 4 m/S 763 mmHg 69%
09:00 +8°C° 0 mm 5 m/S 762 mmHg 62%
10:00 +10°C° 0 mm 5 m/S 762 mmHg 56%
11:00 +14°C° 0 mm 6 m/S 762 mmHg 49%
12:00 +15°C° 0 mm 6 m/S 761 mmHg 48%
13:00 +15°C° 0 mm 6 m/S 760 mmHg 47%
14:00 +16°C° 0 mm 6 m/S 759 mmHg 46%
15:00 +15°C° 0 mm 6 m/S 758 mmHg 49%
16:00 +14°C° 0 mm 6 m/S 758 mmHg 53%
17:00 +13°C° 0 mm 6 m/S 758 mmHg 56%
18:00 +12°C° 0 mm 7 m/S 758 mmHg 55%
19:00 +11°C° 0 mm 7 m/S 757 mmHg 55%
20:00 +11°C° 0 mm 8 m/S 757 mmHg 54%
21:00 +11°C° 0 mm 8 m/S 757 mmHg 53%
22:00 +11°C° 0 mm 8 m/S 757 mmHg 52%
23:00 +12°C° 0 mm 8 m/S 757 mmHg 51%

13 Juli, Montag

Zeit Temperatur Niederschläge Wind Luftdruck Luftfeuchtigkeit
00:00 +12°C° 0 mm 8 m/S 757 mmHg 53%
01:00 +11°C° 0 mm 7 m/S 757 mmHg 56%
02:00 +11°C° 0 mm 6 m/S 756 mmHg 58%
03:00 +11°C° 0 mm 7 m/S 756 mmHg 60%
04:00 +11°C° 0 mm 7 m/S 756 mmHg 61%
05:00 +11°C° 0 mm 7 m/S 756 mmHg 63%
06:00 +11°C° 0 mm 7 m/S 756 mmHg 64%
07:00 +11°C° 0 mm 7 m/S 756 mmHg 65%
08:00 +11°C° 0 mm 7 m/S 757 mmHg 65%
09:00 +12°C° 0 mm 7 m/S 756 mmHg 65%
10:00 +15°C° 0 mm 7 m/S 756 mmHg 64%
11:00 +17°C° 0 mm 7 m/S 756 mmHg 63%
12:00 +18°C° 0 mm 7 m/S 755 mmHg 61%
13:00 +20°C° 0 mm 7 m/S 754 mmHg 59%
14:00 +21°C° 0 mm 7 m/S 753 mmHg 57%
15:00 +20°C° 0 mm 6 m/S 753 mmHg 57%
16:00 +19°C° 0 mm 5 m/S 753 mmHg 57%
17:00 +17°C° 0 mm 5 m/S 753 mmHg 57%
18:00 +16°C° 0 mm 6 m/S 753 mmHg 52%
19:00 +16°C° 0 mm 7 m/S 753 mmHg 47%
20:00 +16°C° 0 mm 7 m/S 753 mmHg 41%
21:00 +15°C° 0 mm 7 m/S 752 mmHg 40%
22:00 +15°C° 0 mm 8 m/S 752 mmHg 39%
23:00 +15°C° 0 mm 8 m/S 751 mmHg 38%

14 Juli, Dienstag

Zeit Temperatur Niederschläge Wind Luftdruck Luftfeuchtigkeit
00:00 +15°C° 0 mm 8 m/S 751 mmHg 41%
01:00 +15°C° 0 mm 8 m/S 751 mmHg 44%
02:00 +15°C° 0 mm 8 m/S 750 mmHg 48%
03:00 +13°C° 0.1 mm 9 m/S 750 mmHg 57%
04:00 +13°C° 0.1 mm 9 m/S 750 mmHg 66%
05:00 +13°C° 0.1 mm 10 m/S 750 mmHg 75%
06:00 +12°C° 0.9 mm 8 m/S 750 mmHg 80%
07:00 +11°C° 0.9 mm 7 m/S 750 mmHg 86%
08:00 +10°C° 0.9 mm 5 m/S 751 mmHg 91%
09:00 +11°C° 0.9 mm 4 m/S 750 mmHg 91%
10:00 +11°C° 0.9 mm 3 m/S 750 mmHg 92%
11:00 +12°C° 0.9 mm 1 m/S 750 mmHg 93%
12:00 +10°C° 2.5 mm 2 m/S 750 mmHg 93%
13:00 +10°C° 2.5 mm 2 m/S 749 mmHg 94%
14:00 +10°C° 2.5 mm 2 m/S 748 mmHg 95%
15:00 +10°C° 1.7 mm 3 m/S 749 mmHg 94%
16:00 +11°C° 1.7 mm 4 m/S 749 mmHg 93%
17:00 +10°C° 1.7 mm 5 m/S 750 mmHg 92%
18:00 +9°C° 1 mm 5 m/S 751 mmHg 90%
19:00 +9°C° 1 mm 5 m/S 752 mmHg 89%
20:00 +9°C° 1 mm 5 m/S 753 mmHg 87%
21:00 +9°C° 0.1 mm 5 m/S 753 mmHg 86%
22:00 +10°C° 0.1 mm 4 m/S 754 mmHg 85%
23:00 +10°C° 0.1 mm 4 m/S 755 mmHg 83%
Mehr zeigen